TJS-17

Last updated on Mon Sep 07 2026 00:03:02 GMT+0000 (Coordinated Universal Time)

1 63524U 25073A 26249.72698551 -.00000087 00000+0 00000+0 0 9997 2 63524 1.2680 81.8295 0001265 174.6331 155.6052 1.00270336 5103
UTC large
Height (km)
Speed (km/s)
/
Latitude / Longitude
Inclination (degrees)
Orbital Period (minutes)
Azimuth
Elevation
Range (km)
Doppler Factor

Next 0 passes for location: London (51.5072 / 0.1276)

No passes found over London.
TJS-17